Regional Weather Roundup
Issued by NWS Midland/Odessa, TX

Skip options and go directly to product.
Home | Oldest Version | Previous Version | Current Version | All | Text Only | Save Text | Print | Product List | Glossary On

Skip product version selection by date and time.   
960
ASUS44 KMAF 062110
RWRMAF
MIDLAND AREA WEATHER ROUNDUP
NATIONAL WEATHER SERVICE MIDLAND TX
300 PM CST FRI MAR 06 2015

...IN SOUTHWEST TEXAS AND SOUTHEAST NEW MEXICO...

CITY           SKY/WX    TMP DP  RH WIND       PRES   REMARKS
ALPINE         SUNNY     58  32  37 NE8       30.36F
ANDREWS        FAIR      55  29  36 S7        30.35F
ARTESIA        SUNNY     55  23  28 SE7G14    30.32F
BIG SPRING     SUNNY     59  28  31 S7        30.39F
CARLSBAD       SUNNY     54  27  35 E6        30.31F
DRYDEN           N/A     53  27  36 SE9G17    30.37F
FORT STOCKTON  SUNNY     57  34  41 E13       30.33F
GUAD PASS      NOT AVBL
HOBBS          SUNNY     55  23  28 S8        30.34F
MARFA          SUNNY     61  30  31 SE5G21    30.31F
MIDLAND AIRPK  SUNNY     55  28  35 S3        30.37F
MIDLAND INTL   SUNNY     53  29  39 VRB6      30.36F
ODESSA         SUNNY     54  26  34 S8        30.36F
PECOS          SUNNY     52  36  53 E6        30.34F
PRESIDIO       FAIR      60  32  35 CALM      30.27F
SEMINOLE       SUNNY     55  27  33 CALM      30.35F
SNYDER         SUNNY     53  29  41 S9        30.38F
WINK           SUNNY     55  29  36 E7        30.34F
$$
...OTHER STATIONS IN TEXAS...

CITY           SKY/WX    TMP DP  RH WIND       PRES   REMARKS
ABILENE        SUNNY     52  24  33 SW7       30.42F
AMARILLO       SUNNY     61  25  25 SW8       30.29F
AUSTIN         MOSUNNY   52  24  33 VRB7      30.48F
BROWNSVILLE    CLOUDY    52  38  58 N10       30.50F
CORPUS CHRISTI CLOUDY    49  22  34 CALM      30.52F
DALLAS FTW     SUNNY     49  24  37 CALM      30.48F
DEL RIO        CLOUDY    55  22  27 SE12      30.44F
EL PASO        MOSUNNY   61  15  16 VRB5      30.26F
HOUSTON INT    MOSUNNY   55  20  25 VRB5      30.48F
LUBBOCK        SUNNY     55  28  35 SW8       30.33F
SAN ANGELO     SUNNY     57  27  31 VRB6      30.39F
SAN ANTONIO    MOSUNNY   54  25  32 VRB6      30.48F
WACO           SUNNY     51  25  36 CALM      30.49F
WICHITA FALLS  NOT AVBL
$$
...OTHER LOCATIONS IN NEW MEXICO...

CITY           SKY/WX    TMP DP  RH WIND       PRES   REMARKS
ALAMAGORDO     SUNNY     57  18  21 CALM      30.30F
ALBUQUERQUE    SUNNY     56  12  17 CALM      30.32F
CANNON AFB     NOT AVBL
CLOVIS         SUNNY     57  27  30 SW13G18   30.30F
HOLLOMAN AFB   NOT AVBL
ROSWELL        SUNNY     55  25  31 VRB5      30.31F
RUIDOSO        SUNNY     55   9  15 E6        30.33F
SANTA FE       SUNNY     57  14  18 SW12      30.30F
TRUTH OR CONSE SUNNY     57   8  14 CALM      30.28F
TUCUMCARI      SUNNY     61  22  22 CALM      30.25F
$$

USA.gov is the U.S. government's official web portal to all federal, state and local government web resources and services.